Powrót do katalogu

SL-3 DEB

AktywnyPO
NORAD 20348·DEBRIS·🇷🇺 Russia

Wystrzelony Jun 30, 1972 z Plesetsk Cosmodrome

Loading…

Następne Przeloty (najbliższe 24 godziny)

TLE

ŚwieżeSource: Space-Track

Epoka: Sep 14, 2026, 05:03 UTC

1 20348U 72049C   26257.21085957  .00000051  00000-0  24788-4 0  9997
2 20348  81.2420 334.9054 0049293 140.6414 219.8352 14.02271434770496

Śledź SL-3 DEB w czasie rzeczywistym z AllMySat

Download on the App Store